Weather in Kamenka-Bugskaya

Ukraine / Lviv District     50˚06′17″N   24˚20′15″E
temp.,
°C
wind,
m/s
gust,
m/s
humid.,
%
clouds,
%
prec.,
mm/h
press.,
hPa
HPBL,
m
3 december, thu
thu323:00−2˚se588697 0.0 1023590
02:00−3˚se389185 0.0 1023244
05:00−3˚se399472 0.0 1022314
08:00−2˚se698983 0.0 1021452
11:00se6118583 0.0 1019446
14:00+1˚se6118281 0.0 1017496
17:00se5138891 0.0 1016431
20:00se6148976 0.0 1015414
4 december, fri
fri423:00se5149132 0.0 1015437
02:00se5139166 0.0 1014429
05:00se6159197 0.0 1012419
08:00se5149076 0.0 1012428
11:00+3˚se6148661 0.0 1011500
14:00+4˚se5138631 0.0 1011535
17:00+3˚se414901 0.0 1011395
20:00+3˚se512919 0.0 1011254
5 december, sat
sat523:00+3˚se512910 0.0 1012285
02:00+3˚sse413920 0.0 1013293
05:00+3˚sse413930 0.0 1013314
08:00+4˚sse5159310 0.0 1014357
11:00+7˚sse6149138 0.0 1015534
14:00+8˚sse6148634 0.0 1015452
17:00+7˚se615890 0.0 1016446
20:00+7˚sse717881 0.0 1017498
6 december, sun
sun623:00+7˚sse717886 0.0 1018505
02:00+6˚sse7168818 0.0 1019472
05:00+5˚se6158820 0.0 1019486
08:00+5˚se7158652 0.0 1019560
11:00+6˚se9157885 0.0 1020762
14:00+5˚se9167483 0.0 1019825
17:00+2˚se8167828 0.0 1019762
20:00+1˚se9187420 0.0 1020747
7 december, mon
mon723:00se917751 0.0 1019784
02:00se919711 0.0 1019811
05:00se919700 0.0 1018861
08:00se918711 0.0 1019866
11:00+2˚se10166754 0.0 1019929
14:00+2˚se10166866 0.0 1019882
17:00+1˚se9157191 0.0 1020880
20:00−1˚se9167194 0.0 1020833